Location: Devore Heights
(34.2372°N, 117.4156°W)
Time: 22:50:17
(UTC+00:00)

Transit 4A - Pass Details

Date: 17 September 2024
Orbit: 864 x 978 km, 66.8° (Epoch: 13 October)

Event Time Altitude Azimuth Distance (km) Brightness Sun altitude
Rises 17:27:39 0° 352° (N) 3,604 10.7 44.6°
Reaches altitude 10° 17:32:06 10° 21° (NNE) 2,682 10.3 45.4°
Maximum altitude 17:34:32 12° 45° (NE) 2,527 10.4 45.8°
Drops below altitude 10° 17:36:59 10° 68° (ENE) 2,702 10.7 46.1°
Sets 17:41:28 0° 97° (E) 3,661 11.5 46.8°
